Find Starlink 5880

NORAD ID: 57220 Int'l Des: 2023-094 Owner: SPXS Country: US Constellation: starlink operational
LEOCIRCULAR

Live Position

Loading 3D Globe...

About Starlink 5880

Description loading...

Upcoming Passes

Passes for default location (London). Set your location on the main map for personalized predictions.

Altitude History

Loading altitude history...

Two-Line Element Set

1 57220U 23094C 26121.94870373 -.00002365 00000-0 -78560-4 0 9995
2 57220 43.0042 93.0976 0000949 258.4836 101.5909 15.26720858155227
Epoch: May 1, 2026 • Age: 27 hours

Current Status

Altitude 485.6 km
Velocity 7.63 km/s
Sub-Earth Point 22.90°N, 12.51°W
Launch Date Jul 7, 2023
Age 2.8 years
Type internet

Technical Details

Classification Payload
Mass 305.00 kg
Dry Mass 290.00 kg
Total Mass 305.00 kg
Length 0.20 m
Diameter 2.80 m
Span 9.00 m
Shape Box + pan
Manufacturer SPXS
Bus Type Starlink
Phase Status In Orbit
Owner/State SPXS/US

Most Searched